Terminal Aerodrome Forecast
Issued by NWS

Home | Current Version | Previous Version | Graphics & Text | Print | Product List | Glossary On
Versions: 1 2 3 4 5 6 7 8 9 10 11 12 13 14 15 16 17 18 19 20 21
000
FTUS42 KMHX 210200 AAA
TAFPGV
TAF AMD
KPGV 210251Z 2103/2124 00000KT 5SM BR SCT200
     FM210600 00000KT 2SM BR SCT003
     FM211300 26005KT P6SM SCT040
      AMD LTD TO CLD VIS AND WIND=

USA.gov is the U.S. government's official web portal to all federal, state and local government web resources and services.